Total_Precipitation_Accumulation
1.83 1.89 1.96 2.04 2.19 2.27 2.25 2.29 2.33 2.38 2.51 2.62 2.74 2.81 2.81 2.81 2.94 3.02 2.82 2.98 2.94 3.04 2.95 2.91 2.87 3.09 3.15 2.98 3.15 3.31 3.59 3.85 3.55 3.03 3.12 3.13 3.08 2.91 2.87 2.74 2.58 2.51 2.28
1.86 1.98 2.11 2.19 2.30 2.36 2.24 2.32 2.50 2.52 2.61 2.74 2.86 2.94 2.80 2.86 3.01 2.91 2.87 2.92 2.96 2.91 3.01 3.23 3.12 3.32 3.35 3.27 3.44 3.46 3.58 3.88 3.77 3.41 3.25 3.28 3.17 3.04 2.98 2.72 2.34 2.20 2.17
2.21 2.28 2.31 2.24 2.29 2.42 2.48 2.48 2.57 2.69 2.77 2.76 2.73 2.77 2.90 3.10 3.11 2.91 2.89 2.87 2.75 2.64 2.80 3.09 3.37 3.85 3.70 3.53 3.41 3.31 3.36 3.47 3.73 3.44 3.14 3.33 3.15 3.03 3.02 2.65 2.37 2.31 1.95
2.06 2.14 2.30 2.36 2.46 2.62 2.73 2.77 2.77 2.76 2.76 2.81 2.87 2.86 2.91 2.93 2.92 2.96 3.03 2.98 2.87 2.69 2.68 2.79 2.96 3.28 3.45 3.59 3.36 3.26 3.38 3.48 3.60 3.49 3.36 3.54 3.60 3.43 3.22 2.83 2.65 2.50 2.19
2.29 2.49 2.69 2.79 2.83 2.96 3.01 2.97 2.99 2.93 2.83 3.03 3.08 3.05 3.00 2.91 2.69 2.96 3.15 3.01 3.05 2.92 2.79 2.70 2.52 2.67 2.89 3.09 2.90 3.22 3.45 3.40 3.44 3.48 3.57 3.91 3.89 3.71 3.18 2.91 2.80 2.68 2.37
2.61 2.96 3.12 3.21 3.25 3.29 3.35 3.31 3.31 3.24 3.36 3.39 3.21 3.15 3.06 2.77 2.97 3.06 3.07 3.06 3.16 3.09 2.99 2.91 2.69 2.49 2.48 2.64 2.71 2.91 3.15 3.18 3.24 3.40 3.47 3.62 3.66 3.63 3.44 3.16 2.90 2.73 2.43
2.66 2.89 3.01 3.11 3.20 3.35 3.36 3.37 3.40 3.43 3.42 3.41 3.45 3.38 3.22 3.32 3.36 3.04 2.99 2.96 3.01 2.99 3.20 3.32 2.82 2.36 2.61 2.55 2.64 2.63 2.49 2.61 2.82 3.04 3.17 3.17 3.51 3.67 3.76 3.32 3.11 2.89 2.51
2.89 3.03 3.11 3.09 3.13 3.20 3.19 3.08 3.12 3.29 3.30 3.24 3.19 3.14 3.07 3.05 3.19 2.93 2.88 2.73 2.70 2.72 2.79 2.86 2.84 2.62 2.55 2.62 2.58 2.38 2.14 2.12 2.29 2.34 2.39 2.65 3.03 3.56 3.91 3.65 3.53 3.31 2.93
2.92 3.00 3.12 3.21 3.31 3.23 3.15 3.16 3.18 3.25 3.16 3.11 3.08 3.11 2.98 2.93 3.06 2.83 2.81 2.56 2.48 2.41 2.40 2.38 2.38 2.22 2.33 2.43 2.38 2.25 2.11 1.98 2.01 2.09 2.02 2.15 2.48 2.88 3.40 3.67 3.42 3.11 2.76
2.85 2.98 3.10 3.20 3.38 3.49 3.45 3.49 3.43 3.35 3.29 3.28 3.23 3.22 3.10 3.01 3.15 2.90 2.77 2.51 2.44 2.43 2.51 2.46 2.39 2.21 2.21 2.18 2.09 2.10 1.92 1.80 1.92 1.89 1.79 1.80 1.94 2.30 2.84 3.02 3.14 3.02 2.69
2.57 2.62 2.80 3.05 3.30 3.46 3.56 3.56 3.58 3.50 3.39 3.19 3.04 3.00 2.92 2.91 3.07 2.90 2.73 2.45 2.40 2.48 2.54 2.58 2.51 2.42 2.12 2.00 1.90 1.80 1.78 1.95 2.04 2.02 1.94 1.93 2.10 2.30 2.48 2.76 3.01 3.08 2.87
2.55 2.69 2.83 3.07 3.16 3.21 3.36 3.40 3.56 3.53 3.42 3.31 3.09 2.89 2.78 2.62 2.59 2.60 2.43 2.30 2.33 2.38 2.44 2.55 2.59 2.53 2.23 2.10 1.94 1.78 1.88 1.89 1.87 1.99 1.96 1.90 1.95 2.08 2.29 2.61 2.91 2.98 2.88
2.81 2.92 3.02 3.11 3.21 3.31 3.39 3.38 3.39 3.39 3.24 3.12 2.95 2.83 2.73 2.63 2.56 2.38 2.12 2.07 2.14 2.12 2.21 2.58 2.67 2.51 2.28 2.01 1.93 1.94 1.88 1.76 1.77 1.80 1.70 1.66 1.74 1.90 2.11 2.42 2.77 3.01 2.94
2.86 2.81 2.84 2.86 2.93 3.03 3.16 3.20 3.18 3.09 3.03 2.93 2.79 2.70 2.59 2.53 2.44 2.37 2.21 2.07 2.05 2.01 2.02 2.25 2.33 2.26 2.04 1.88 1.81 1.73 1.65 1.67 1.68 1.65 1.65 1.73 1.86 1.92 1.98 2.14 2.53 2.89 3.02
2.89 2.90 2.94 2.96 3.03 3.13 3.22 3.34 3.25 3.05 2.96 2.82 2.65 2.66 2.65 2.46 2.41 2.45 2.28 2.09 2.05 2.14 2.15 2.10 2.14 2.21 2.18 2.07 2.04 1.98 1.95 1.89 1.78 1.70 1.80 1.83 1.96 2.10 2.17 2.29 2.54 2.77 2.73
2.91 2.84 2.88 2.98 3.07 3.19 3.26 3.27 3.31 3.00 2.89 2.73 2.64 2.59 2.48 2.33 2.25 2.10 2.04 1.99 1.94 1.95 1.87 1.85 2.00 2.17 2.29 2.28 2.30 2.27 2.21 2.12 2.04 2.03 2.07 2.05 2.06 2.15 2.24 2.27 2.45 2.63 2.63
2.93 2.92 2.91 2.87 2.93 2.99 2.95 2.87 2.90 2.84 2.66 2.58 2.49 2.38 2.26 2.13 2.01 1.93 1.89 1.89 1.83 1.77 1.63 1.72 1.90 2.04 2.21 2.36 2.39 2.34 2.25 2.26 2.33 2.32 2.29 2.26 2.26 2.31 2.41 2.40 2.40 2.52 2.59
2.89 2.95 2.97 2.93 2.84 2.82 2.75 2.68 2.62 2.59 2.46 2.30 2.23 2.19 2.18 2.12 2.07 2.04 2.03 1.99 1.84 1.78 1.69 1.87 2.06 2.19 2.30 2.48 2.54 2.50 2.46 2.42 2.44 2.40 2.43 2.41 2.39 2.40 2.43 2.44 2.40 2.39 2.49
2.62 2.57 2.54 2.55 2.51 2.50 2.43 2.34 2.26 2.20 2.24 2.28 2.16 2.07 2.15 2.08 2.13 2.21 2.07 1.90 1.90 1.94 1.96 2.04 2.12 2.21 2.34 2.50 2.64 2.70 2.71 2.66 2.62 2.57 2.52 2.53 2.56 2.56 2.46 2.43 2.50 2.56 2.52
2.13 2.27 2.17 2.07 2.08 2.10 2.11 2.12 2.07 2.08 2.16 2.28 2.23 2.03 2.00 1.94 1.98 2.12 1.95 1.93 2.03 2.02 1.98 2.06 2.11 2.14 2.29 2.41 2.48 2.54 2.58 2.55 2.56 2.62 2.57 2.55 2.57 2.59 2.52 2.54 2.65 2.65 2.54
1.73 1.77 1.83 1.67 1.72 1.87 1.96 1.99 2.02 2.11 2.16 2.16 2.06 1.91 1.84 1.72 1.94 2.06 1.98 1.93 1.92 1.92 1.92 1.93 1.98 2.03 2.13 2.26 2.32 2.39 2.46 2.46 2.44 2.49 2.58 2.59 2.51 2.54 2.53 2.58 2.64 2.70 2.63
1.36 1.37 1.40 1.40 1.52 1.64 1.71 1.77 1.87 1.94 1.98 1.98 1.87 1.72 1.71 1.64 1.83 1.93 1.88 1.85 1.83 1.83 1.86 1.91 1.92 1.90 1.98 2.12 2.18 2.25 2.37 2.35 2.29 2.32 2.46 2.60 2.53 2.48 2.58 2.68 2.71 2.75 2.72
1.26 1.33 1.38 1.40 1.50 1.55 1.54 1.57 1.74 1.84 1.86 1.86 1.78 1.70 1.64 1.64 1.71 1.79 1.82 1.77 1.75 1.73 1.71 1.78 1.84 1.84 1.90 2.03 2.07 2.14 2.28 2.27 2.24 2.29 2.39 2.47 2.46 2.43 2.48 2.54 2.61 2.72 2.70
1.24 1.29 1.33 1.31 1.31 1.37 1.42 1.47 1.54 1.58 1.61 1.64 1.64 1.58 1.55 1.58 1.61 1.62 1.61 1.59 1.64 1.69 1.71 1.80 1.83 1.90 2.00 2.04 1.97 1.93 2.00 2.07 2.06 2.09 2.19 2.33 2.39 2.42 2.45 2.47 2.47 2.51 2.58
1.20 1.26 1.30 1.40 1.45 1.48 1.49 1.49 1.50 1.45 1.45 1.49 1.51 1.56 1.60 1.62 1.63 1.64 1.64 1.64 1.63 1.66 1.65 1.69 1.76 1.82 1.86 1.80 1.75 1.76 1.89 1.84 1.79 1.82 1.96 2.17 2.27 2.35 2.41 2.40 2.41 2.46 2.56
1.32 1.40 1.48 1.56 1.62 1.65 1.69 1.68 1.62 1.56 1.55 1.51 1.56 1.61 1.71 1.79 1.82 1.83 1.80 1.77 1.75 1.76 1.73 1.73 1.72 1.66 1.65 1.62 1.56 1.63 1.63 1.50 1.50 1.65 1.72 1.89 2.08 2.14 2.26 2.38 2.40 2.47 2.50